Location: Asheville, NC
(35.6000°N, 82.5500°W)
Time: 05:59:36
(UTC-04:00)

Vanguard 3 - Pass Details

Date: 09 February 2018
Orbit: 508 x 3264 km, 33.3° (Epoch: 19 May)

Event Time Altitude Azimuth Distance (km) Brightness Sun altitude
Exits shadow 03:58:05 11° 194° (SSW) 5,768 11.2 -42.0°
Drops below altitude 10° 03:59:29 10° 190° (S) 5,944 11.3 -41.7°
Sets 04:08:15 0° 170° (S) 7,199 12.0 -40.0°
